Location: Ferchesar
(52.6477°N, 12.4298°E)
Time: 08:11:24
(UTC+01:00)

Tiros 1 despin weight - Pass Details

Date: 09 December 2021
Orbit: 592 x 641 km, 48.2° (Epoch: 19 January)

Event Time Altitude Azimuth Distance (km) Brightness Sun altitude
Rises 10:59:46 0° 207° (SSW) 2,850 ? 13.3°
Reaches altitude 10° 11:02:42 10° 187° (S) 1,940 ? 13.4°
Maximum altitude 11:05:36 17° 146° (SE) 1,522 ? 13.5°
Drops below altitude 10° 11:08:29 10° 105° (ESE) 1,931 ? 13.6°
Sets 11:11:24 0° 86° (E) 2,831 ? 13.7°
